Regional Weather Roundup
Issued by NWS Little Rock, AR

Home | Current Version | Previous Version | Graphics & Text | Print | Product List | Glossary On
Versions: 1 2 3 4 5 6 7 8 9 10 11 12 13 14 15 16 17 18 19 20 21 22 23 24 25 26 27 28 29 30 31
000
ASUS44 KLZK 200205
RWRLZK

WEATHER ROUNDUP FOR ARKANSAS
NATIONAL WEATHER SERVICE LITTLE ROCK AR
900 PM CDT THU APR 19 2018

NOTE: "FAIR" INDICATES FEW OR NO CLOUDS BELOW 12,000 FEET WITH NO
SIGNIFICANT WEATHER AND/OR OBSTRUCTIONS TO VISIBILITY.

ARZ001-003-010-029-200300-
NORTHWEST ARKANSAS

CITY           SKY/WX    TMP DP  RH WIND       PRES   REMARKS
FAYETTEVILLE   CLEAR     49  32  52 CALM      30.32S
FORT SMITH     CLEAR     56  37  49 CALM      30.30R
HARRISON       CLEAR     47  31  53 NE6       30.34R
BENTONVILLE    PTCLDY    51  32  48 NE5       30.35
ROGERS         PTCLDY    50  31  48 E6        30.33S
SILOAM SPGS    PTCLDY    48  34  58 NE3       30.33R
HIGHFILL       PTCLDY    49  33  54 NE5       30.33S
SPRINGDALE     PTCLDY    50  32  50 NE3       30.34S
$$

ARZ004-005-016-200300-
NORTH CENTRAL ARKANSAS

CITY           SKY/WX    TMP DP  RH WIND       PRES   REMARKS
BATESVILLE     CLEAR     49  32  52 E7        30.36R
FLIPPIN        CLEAR     51  30  44 E3        30.35S
MTN HOME       CLEAR     48  31  51 CALM      30.34S
$$

ARZ040-041-200300-
WEST CENTRAL ARKANSAS

CITY           SKY/WX    TMP DP  RH WIND       PRES   REMARKS
MENA           CLEAR     50  41  71 CALM      30.29R
MOUNT IDA      CLEAR     52  40  63 CALM      30.28R
$$

ARZ009-017-025-026-028-200300-
NORTHEAST ARKANSAS

CITY           SKY/WX    TMP DP  RH WIND       PRES   REMARKS
CORNING        FAIR      50  36  57 NE12      30.38R
JONESBORO      FAIR      47  36  65 NE10      30.37S
NEWPORT        FAIR      48  36  63 E9        30.37R
WALNUT RIDGE   FAIR      48  34  58 E12       30.37S
BLYTHEVILLE    FAIR      48  33  56 NE10      30.38R
$$

ARZ022-023-033-042-044-200300-
CENTRAL ARKANSAS

CITY           SKY/WX    TMP DP  RH WIND       PRES   REMARKS
LITTLE ROCK    CLOUDY    51  34  52 E10       30.33R
N LITTLE ROCK    N/A     50  36  58 E7        30.31R
JACKSONVILLE   PTCLDY    52  34  50 E10       30.33R
CONWAY           N/A     55  32  41 E12       30.32R
SEARCY         FAIR      51  33  50 E7        30.36R
HOT SPRINGS    CLEAR     53  36  52 E7        30.31R
RUSSELLVILLE   CLOUDY    52  34  50 E5        30.31R
CLINTON        FAIR      48  36  61 CALM      30.34S
$$

ARZ036-200300-
EAST ARKANSAS

CITY           SKY/WX    TMP DP  RH WIND       PRES   REMARKS
WEST MEMPHIS   FAIR      48  35  60 NE8       30.35S
$$

ARZ050-053-066-070-073-200300-
SOUTHWEST ARKANSAS

CITY           SKY/WX    TMP DP  RH WIND       PRES   REMARKS
ARKADELPHIA    FAIR      55  40  56 NE3       30.31R
CAMDEN         FAIR      54  36  50 NE5       30.30R
TEXARKANA      CLEAR     55  40  56 CALM      30.27R
EL DORADO      FAIR      51  42  71 NE7       30.30R
DE QUEEN       PTCLDY    56  42  59 CALM      30.26R
$$

ARZ056-057-069-200300-
SOUTHEAST ARKANSAS

CITY           SKY/WX    TMP DP  RH WIND       PRES   REMARKS
PINE BLUFF     FAIR      52  34  50 NE9       30.33R
STUTTGART      FAIR      51  35  54 NE10      30.35R
MONTICELLO     FAIR      49  36  61 CALM      30.32R

$$






USA.gov is the U.S. government's official web portal to all federal, state and local government web resources and services.